• în România
  • Lista ţărilor
  • Pe 7 zile
  • Temperatura apei
  • Hartă satelitară
  • Meteo pe hartă
  • Widget-uri
  • user-avatar
    Intrare

    Meteo pe oră la Wiktoria

    Astăzi, 23 Februarie, Joi

    Timp Temperatura Precipitaţii Vânt Presiune Umiditate
    00:00 +24°C° 0 mm 2 m/s 747 mmHg 25%
    01:00 +23°C° 0 mm 1 m/s 747 mmHg 29%
    02:00 +21°C° 0 mm 1 m/s 748 mmHg 35%
    03:00 +20°C° 0 mm 1 m/s 748 mmHg 42%
    04:00 +18°C° 0 mm 1 m/s 748 mmHg 54%
    05:00 +18°C° 0 mm 1 m/s 749 mmHg 55%
    06:00 +19°C° 0 mm 1 m/s 750 mmHg 55%
    07:00 +19°C° 0 mm 1 m/s 750 mmHg 55%
    08:00 +22°C° 0 mm 1 m/s 750 mmHg 49%
    09:00 +25°C° 0 mm 1 m/s 751 mmHg 42%
    10:00 +27°C° 0 mm 1 m/s 751 mmHg 36%
    11:00 +28°C° 0 mm 1 m/s 751 mmHg 32%
    12:00 +30°C° 0 mm 2 m/s 751 mmHg 27%
    13:00 +32°C° 0 mm 2 m/s 750 mmHg 23%
    14:00 +32°C° 0 mm 2 m/s 750 mmHg 22%
    15:00 +34°C° 0 mm 2 m/s 750 mmHg 21%
    16:00 +34°C° 0 mm 2 m/s 750 mmHg 21%
    17:00 +31°C° 0 mm 2 m/s 750 mmHg 25%
    18:00 +29°C° 0 mm 2 m/s 751 mmHg 30%
    19:00 +27°C° 0 mm 2 m/s 751 mmHg 35%
    20:00 +25°C° 0 mm 2 m/s 752 mmHg 43%
    21:00 +23°C° 0 mm 2 m/s 752 mmHg 52%
    22:00 +21°C° 0 mm 2 m/s 753 mmHg 60%
    23:00 +20°C° 0 mm 2 m/s 753 mmHg 65%

    Mâine, 24 Februarie, Vineri

    Timp Temperatura Precipitaţii Vânt Presiune Umiditate
    00:00 +19°C° 0 mm 2 m/s 753 mmHg 70%
    01:00 +18°C° 0 mm 2 m/s 753 mmHg 75%
    02:00 +17°C° 0 mm 2 m/s 753 mmHg 76%
    03:00 +17°C° 0 mm 2 m/s 753 mmHg 78%
    04:00 +17°C° 0 mm 2 m/s 753 mmHg 79%
    05:00 +17°C° 0 mm 2 m/s 753 mmHg 79%
    06:00 +17°C° 0 mm 2 m/s 754 mmHg 78%
    07:00 +17°C° 0 mm 2 m/s 754 mmHg 77%
    08:00 +18°C° 0 mm 2 m/s 754 mmHg 68%
    09:00 +20°C° 0 mm 2 m/s 754 mmHg 59%
    10:00 +23°C° 0 mm 2 m/s 754 mmHg 50%
    11:00 +25°C° 0 mm 3 m/s 754 mmHg 44%
    12:00 +26°C° 0 mm 3 m/s 754 mmHg 38%
    13:00 +28°C° 0 mm 3 m/s 753 mmHg 33%
    14:00 +27°C° 0 mm 3 m/s 753 mmHg 32%
    15:00 +27°C° 0 mm 3 m/s 753 mmHg 32%
    16:00 +27°C° 0 mm 4 m/s 752 mmHg 31%
    17:00 +25°C° 0 mm 4 m/s 753 mmHg 37%
    18:00 +22°C° 0 mm 3 m/s 753 mmHg 43%
    19:00 +20°C° 0 mm 3 m/s 753 mmHg 49%
    20:00 +19°C° 0 mm 3 m/s 754 mmHg 54%
    21:00 +18°C° 0 mm 3 m/s 754 mmHg 58%
    22:00 +16°C° 0 mm 3 m/s 755 mmHg 63%
    23:00 +16°C° 0 mm 3 m/s 754 mmHg 65%

    Poimâine, 25 Februarie, Sâmbătă

    Timp Temperatura Precipitaţii Vânt Presiune Umiditate
    00:00 +15°C° 0 mm 2 m/s 754 mmHg 67%
    01:00 +15°C° 0 mm 2 m/s 754 mmHg 69%
    02:00 +15°C° 0 mm 2 m/s 754 mmHg 71%
    03:00 +14°C° 0 mm 2 m/s 754 mmHg 73%
    04:00 +14°C° 0 mm 2 m/s 753 mmHg 75%
    05:00 +14°C° 0 mm 2 m/s 754 mmHg 74%
    06:00 +14°C° 0 mm 2 m/s 754 mmHg 74%
    07:00 +14°C° 0 mm 2 m/s 754 mmHg 73%
    08:00 +16°C° 0 mm 2 m/s 754 mmHg 65%
    09:00 +18°C° 0 mm 2 m/s 754 mmHg 57%
    10:00 +20°C° 0 mm 2 m/s 754 mmHg 50%
    11:00 +23°C° 0 mm 2 m/s 754 mmHg 46%
    12:00 +24°C° 0 mm 2 m/s 753 mmHg 43%
    13:00 +26°C° 0 mm 2 m/s 753 mmHg 39%
    14:00 +27°C° 0 mm 2 m/s 752 mmHg 38%
    15:00 +27°C° 0 mm 2 m/s 752 mmHg 36%
    16:00 +28°C° 0 mm 2 m/s 751 mmHg 35%
    17:00 +26°C° 0 mm 2 m/s 751 mmHg 39%
    18:00 +24°C° 0 mm 2 m/s 751 mmHg 43%
    19:00 +23°C° 0 mm 2 m/s 752 mmHg 47%
    20:00 +20°C° 0 mm 2 m/s 752 mmHg 52%
    21:00 +19°C° 0 mm 2 m/s 753 mmHg 57%
    22:00 +18°C° 0 mm 3 m/s 753 mmHg 62%
    23:00 +17°C° 0 mm 2 m/s 753 mmHg 66%

    26 Februarie, Duminică

    Timp Temperatura Precipitaţii Vânt Presiune Umiditate
    00:00 +16°C° 0 mm 2 m/s 753 mmHg 71%
    01:00 +15°C° 0 mm 1 m/s 753 mmHg 75%
    02:00 +15°C° 0 mm 1 m/s 752 mmHg 77%
    03:00 +15°C° 0 mm 1 m/s 752 mmHg 80%
    04:00 +14°C° 0 mm 1 m/s 752 mmHg 83%
    05:00 +15°C° 0 mm 1 m/s 753 mmHg 81%
    06:00 +15°C° 0 mm 1 m/s 753 mmHg 80%
    07:00 +15°C° 0 mm 1 m/s 754 mmHg 78%
    08:00 +20°C° 0 mm 1 m/s 754 mmHg 66%
    09:00 +23°C° 0 mm 1 m/s 754 mmHg 53%
    10:00 +26°C° 0 mm 1 m/s 754 mmHg 41%
    11:00 +28°C° 0 mm 1 m/s 754 mmHg 36%
    12:00 +30°C° 0 mm 1 m/s 753 mmHg 32%
    13:00 +32°C° 0 mm 1 m/s 752 mmHg 27%
    14:00 +32°C° 0 mm 1 m/s 752 mmHg 26%
    15:00 +32°C° 0 mm 1 m/s 752 mmHg 25%
    16:00 +32°C° 0 mm 1 m/s 751 mmHg 24%
    17:00 +30°C° 0 mm 1 m/s 751 mmHg 29%
    18:00 +28°C° 0 mm 1 m/s 752 mmHg 35%
    19:00 +25°C° 0 mm 1 m/s 752 mmHg 40%
    20:00 +25°C° 0 mm 1 m/s 753 mmHg 43%
    21:00 +24°C° 0 mm 1 m/s 753 mmHg 47%
    22:00 +23°C° 0 mm 2 m/s 754 mmHg 50%
    23:00 +22°C° 0 mm 1 m/s 754 mmHg 53%

    27 Februarie, Luni

    Timp Temperatura Precipitaţii Vânt Presiune Umiditate
    00:00 +21°C° 0 mm 1 m/s 754 mmHg 56%
    01:00 +21°C° 0 mm 1 m/s 754 mmHg 59%
    02:00 +20°C° 0 mm 1 m/s 754 mmHg 62%
    03:00 +19°C° 0 mm 1 m/s 754 mmHg 66%
    04:00 +18°C° 0 mm 1 m/s 754 mmHg 69%
    05:00 +18°C° 0 mm 1 m/s 755 mmHg 69%
    06:00 +19°C° 0 mm 1 m/s 755 mmHg 68%
    07:00 +19°C° 0 mm 1 m/s 756 mmHg 67%
    08:00 +22°C° 0 mm 1 m/s 756 mmHg 59%
    09:00 +25°C° 0 mm 1 m/s 756 mmHg 50%
    10:00 +27°C° 0 mm 2 m/s 756 mmHg 42%
    11:00 +29°C° 0 mm 2 m/s 755 mmHg 37%
    12:00 +31°C° 0 mm 1 m/s 754 mmHg 32%
    13:00 +33°C° 0 mm 1 m/s 753 mmHg 27%
    14:00 +33°C° 0 mm 1 m/s 753 mmHg 26%
    15:00 +34°C° 0 mm 1 m/s 752 mmHg 25%
    16:00 +34°C° 0 mm 1 m/s 752 mmHg 23%
    17:00 +32°C° 0 mm 1 m/s 752 mmHg 29%
    18:00 +29°C° 0 mm 1 m/s 752 mmHg 34%
    19:00 +26°C° 0 mm 1 m/s 752 mmHg 40%
    20:00 +25°C° 0 mm 1 m/s 753 mmHg 41%
    21:00 +25°C° 0 mm 1 m/s 753 mmHg 42%
    22:00 +24°C° 0 mm 1 m/s 753 mmHg 43%
    23:00 +24°C° 0 mm 1 m/s 753 mmHg 46%

    28 Februarie, Marţi

    Timp Temperatura Precipitaţii Vânt Presiune Umiditate
    00:00 +23°C° 0 mm 1 m/s 753 mmHg 49%
    01:00 +23°C° 0 mm 1 m/s 753 mmHg 52%
    02:00 +22°C° 0 mm 1 m/s 754 mmHg 56%
    03:00 +22°C° 0 mm 1 m/s 754 mmHg 60%
    04:00 +22°C° 0 mm 1 m/s 754 mmHg 65%
    05:00 +22°C° 0 mm 1 m/s 754 mmHg 67%
    06:00 +22°C° 0 mm 1 m/s 755 mmHg 68%
    07:00 +22°C° 0 mm 1 m/s 755 mmHg 70%
    08:00 +24°C° 0 mm 1 m/s 755 mmHg 62%
    09:00 +27°C° 0 mm 1 m/s 755 mmHg 55%
    10:00 +29°C° 0 mm 2 m/s 755 mmHg 47%
    11:00 +31°C° 0 mm 1 m/s 754 mmHg 41%
    12:00 +33°C° 0 mm 1 m/s 754 mmHg 35%
    13:00 +35°C° 0 mm 1 m/s 753 mmHg 29%
    14:00 +35°C° 0 mm 1 m/s 753 mmHg 28%
    15:00 +35°C° 0 mm 1 m/s 752 mmHg 27%
    16:00 +33°C° 0 mm 0 m/s 752 mmHg 27%
    17:00 +30°C° 0 mm 0 m/s 752 mmHg 35%
    18:00 +27°C° 0 mm 0 m/s 752 mmHg 43%
    19:00 +23°C° 0 mm 0 m/s 752 mmHg 51%
    20:00 +24°C° 0 mm 0 m/s 753 mmHg 49%
    21:00 +26°C° 0 mm 1 m/s 753 mmHg 47%
    22:00 +26°C° 0 mm 1 m/s 754 mmHg 45%
    23:00 +25°C° 0 mm 1 m/s 754 mmHg 49%
    Arată mai mult